Accueil
METAR-TAF:

METAR-TAF

Aéroports :

Base aérienne

Landivisiau, France

latitude: 48-31N, longitude: 004-09W, altitude: 106 m

Observation

Le bulletin a été fait il y a 44 minutes, à 08:00 UTC
Vent 5 kt de nord-est
Température 11°C
Humidité 82%
Pression 1027 hPa
Visibilité 10 km ou plus
Quelques nuages à une hauteur de 1700 ft
Nuages fragmentés à une hauteur de 23000 ft

METAR: LFRJ 140800Z AUTO 04005KT 9999 FEW017 BKN230 11/08 Q1027

Heure: 10:44 (08:44 UTC)


TAF: absent

Observations et prévisions météorologiques de plus de 4000 aéroports (messages METAR et TAF).

Les stations disponibles sont représentées par des disques jaunes et rouges sur la carte.

Passer la souris dessus pour voir le nom de la station.

Cliquer dessus pour voir les observations et prévisions météorologiques.

Pour changer de carte: cliquez sur les boutons verts avec une croix noire pour zoomer, sur le bouton vert avec un tiret pour effectuer un zoom arrière, ou sur les flèches vertes pour les cartes adjacentes.


METAR-TAF: